Location: Chimay
(50.0486°N, 4.3171°E)
Time: 23:17:24
(UTC+00:00)

Cosmos 1733 Rocket - Pass Details

Date: 08 August 2020
Orbit: 603 x 628 km, 82.5° (Epoch: 23 September)

Event Time Altitude Azimuth Distance (km) Brightness Sun altitude
Exits shadow 22:50:58 72° 113° (ESE) 654 2.9 -23.0°
Maximum altitude 22:51:05 72° 98° (E) 652 3.0 -23.0°
Drops below altitude 10° 22:55:30 10° 14° (NNE) 2,001 6.5 -23.1°
Sets 22:57:45 0° 12° (NNE) 2,916 7.6 -23.2°
